DW9987 Weather Reports


time (UTC)temp
C
wind
direction
speed
KPH
gust
KPH
rain 1hr
cm
rain 24hr
cm
rain mn
cm
humidity
%
barometer
mb
20260906123055 19 5 0.0 0.0 0.00 0.00 0.00 95 1018.1
20260906121600 19 5 0.0 0.0 0.00 0.00 0.00 95 1018.0
20260906120052 19 5 0.0 0.0 0.00 0.00 0.00 95 1017.8
20260906114554 19 5 0.0 0.0 0.00 0.00 0.00 95 1017.4
20260906113047 19 5 0.0 0.0 0.00 0.00 0.00 94 1017.2
20260906111555 19 5 0.0 0.0 0.00 0.00 0.00 94 1017.0
20260906110043 19 5 0.0 0.0 0.00 0.00 0.00 94 1016.9
20260906104540 20 5 0.0 0.0 0.00 0.00 0.00 94 1016.6
20260906103039 20 5 0.0 6.4 0.00 0.00 0.00 94 1016.6
20260906101539 20 10 0.0 4.8 0.00 0.00 0.00 94 1016.4
20260906100042 20 11 0.0 6.4 0.00 0.00 0.00 94 1016.5
20260906094536 20 5 0.0 1.6 0.00 0.00 0.00 93 1016.1
20260906093047 20 5 0.0 3.2 0.00 0.00 0.00 93 1016.2
20260906091534 20 343 0.0 3.2 0.00 0.00 0.00 93 1016.2
20260906090033 20 343 0.0 0.0 0.00 0.00 0.00 93 1016.1
20260906084533 20 343 0.0 1.6 0.00 0.00 0.00 93 1016.1
20260906083032 20 348 0.0 4.8 0.00 0.00 0.00 92 1015.9
20260906081546 20 350 0.0 0.0 0.00 0.00 0.00 92 1016.1
20260906080029 20 349 0.0 3.2 0.00 0.00 0.00 92 1016.1
20260906074529 21 347 0.0 0.0 0.00 0.00 0.00 91 1016.2
20260906073045 21 347 0.0 0.0 0.00 0.00 0.00 91 1016.2
20260906071528 21 333 0.0 3.2 0.00 0.00 0.00 91 1016.3
20260906070036 21 338 0.0 0.0 0.00 0.00 0.00 90 1016.3
20260906064524 21 338 0.0 0.0 0.00 0.00 0.00 90 1016.3
20260906063022 21 338 0.0 0.0 0.00 0.00 0.00 89 1016.3
20260906061521 22 338 0.0 1.6 0.00 0.00 0.00 88 1016.5
20260906060017 22 348 0.0 4.8 0.00 0.00 0.00 87 1016.4
20260906054521 22 349 0.0 6.4 0.00 0.00 0.00 87 1016.1
20260906053013 22 355 1.6 11.3 0.00 0.00 0.00 86 1016.1
20260906051519 22 342 1.6 9.7 0.00 0.00 0.00 86 1016.0
20260906050010 22 5 0.0 3.2 0.00 0.00 0.00 86 1015.8
20260906044509 22 340 0.0 0.0 0.00 0.00 0.00 86 1015.7
20260906043007 22 344 0.0 0.0 0.00 0.00 0.00 86 1015.6
20260906041506 22 288 0.0 3.2 0.00 0.00 0.00 85 1015.4
20260906040004 22 344 0.0 6.4 0.00 0.00 0.00 85 1015.4
20260906034503 22 355 0.0 3.2 0.00 0.00 0.00 84 1015.2
20260906033003 22 338 0.0 6.4 0.00 0.00 0.00 84 1015.2
20260906031502 22 360 1.6 8.0 0.00 0.00 0.00 84 1015.1
20260906030002 22 299 1.6 9.7 0.00 0.00 0.00 84 1015.1
20260906024502 22 342 0.0 12.9 0.00 0.00 0.00 84 1015.1
20260906023000 22 317 1.6 8.0 0.00 0.00 0.00 85 1015.0
20260906021600 22 30 3.2 12.9 0.00 0.00 0.00 84 1015.1
20260906020059 22 31 1.6 11.3 0.00 0.00 0.00 84 1015.0
20260906014623 22 17 3.2 11.3 0.00 0.00 0.00 84 1014.9
20260906013058 22 47 3.2 12.9 0.00 0.00 0.00 85 1014.9
20260906011558 22 116 3.2 14.5 0.00 0.00 0.00 84 1014.7
20260906010051 23 343 4.8 16.1 0.00 0.00 0.00 82 1014.8
20260906004600 24 339 4.8 19.3 0.00 0.00 0.00 81 1014.6
20260906003052 24 330 1.6 14.5 0.00 0.00 0.00 81 1014.5
20260906001547 25 104 0.0 8.0 0.00 0.00 0.00 80 1014.3
20260906000047 25 47 0.0 9.7 0.00 0.00 0.00 79 1014.0
20260905234553 26 330 0.0 6.4 0.00 0.00 0.00 78 1013.5
20260905233044 26 340 0.0 3.2 0.00 0.00 0.00 78 1013.3
20260905231543 27 5 0.0 4.8 0.00 0.00 0.00 77 1013.6
20260905230044 27 5 1.6 9.7 0.00 0.00 0.00 75 1013.5
20260905224548 27 343 0.0 6.4 0.00 0.00 0.00 75 1013.3
20260905223041 27 355 0.0 4.8 0.00 0.00 0.00 76 1013.2
20260905221542 27 348 0.0 4.8 0.00 0.00 0.00 74 1013.2
20260905220040 28 319 1.6 11.3 0.00 0.00 0.00 73 1013.2
20260905214539 27 350 3.2 14.5 0.00 0.00 0.00 74 1013.2
20260905213039 27 14 3.2 12.9 0.00 0.00 0.00 75 1013.3
20260905211538 27 346 8.0 14.5 0.00 0.00 0.00 74 1013.2
20260905210038 27 17 6.4 16.1 0.00 0.00 0.00 74 1013.3
20260905204538 27 355 1.6 17.7 0.00 0.00 0.00 75 1013.3
20260905203037 28 339 11.3 19.3 0.00 0.00 0.00 73 1013.4
20260905201538 28 23 8.0 20.9 0.00 0.00 0.00 74 1013.4
20260905200046 28 360 9.7 19.3 0.00 0.00 0.00 73 1013.3
20260905194536 28 77 1.6 11.3 0.00 0.00 0.00 74 1013.3
20260905193035 28 60 3.2 17.7 0.00 0.00 0.00 75 1013.3
20260905191538 28 51 1.6 17.7 0.00 0.00 0.00 73 1013.3
20260905190046 29 36 3.2 16.1 0.00 0.00 0.00 74 1013.2
20260905184548 29 355 3.2 12.9 0.00 0.00 0.00 73 1013.4
20260905183033 30 14 4.8 9.7 0.00 0.00 0.00 71 1013.5
20260905181533 29 355 1.6 8.0 0.00 0.00 0.00 74 1013.4
20260905180030 29 5 1.6 12.9 0.00 0.00 0.00 73 1013.5
20260905174529 29 360 4.8 9.7 0.00 0.00 0.00 74 1013.4
20260905173030 29 9 3.2 11.3 0.00 0.00 0.00 74 1013.4
20260905171533 29 11 0.0 12.9 0.00 0.00 0.00 76 1013.4
20260905170026 28 360 1.6 14.5 0.00 0.00 0.00 76 1013.6
20260905164533 28 36 3.2 12.9 0.00 0.00 0.00 77 1013.7
20260905163023 28 231 0.0 9.7 0.00 0.00 0.00 80 1013.7
20260905161521 28 355 4.8 11.3 0.00 0.00 0.00 78 1013.7
20260905160017 27 10 3.2 12.9 0.00 0.00 0.00 80 1013.8
20260905154517 27 335 1.6 11.3 0.00 0.00 0.00 83 1013.7
20260905153014 26 5 1.6 12.9 0.00 0.00 0.00 85 1013.7
20260905151513 26 283 3.2 14.5 0.00 0.00 0.00 86 1013.6
20260905150013 25 5 3.2 12.9 0.00 0.00 0.00 87 1013.4
20260905144509 25 360 1.6 14.5 0.00 0.00 0.00 87 1013.3
20260905143019 26 21 6.4 14.5 0.00 0.00 0.00 86 1013.1
20260905141509 26 9 4.8 14.5 0.00 0.00 0.00 85 1013.0
20260905140010 26 337 0.0 9.7 0.00 0.00 0.00 87 1012.9
20260905134510 25 350 0.0 4.8 0.00 0.00 0.00 91 1012.6
20260905133009 25 360 1.6 11.3 0.00 0.00 0.00 92 1012.8
20260905131510 25 5 1.6 6.4 0.00 0.00 0.00 94 1013.2
20260905130002 24 360 0.0 6.4 0.00 0.00 0.00 95 1012.6
20260905124602 24 5 0.0 4.8 0.00 0.00 0.00 95 1012.4